RH
12 11 9 8 7 6 6 6 6 6 7 9 11 12 17 21 23 22 21 27 32 37 47 45 44 54 50 58 61 68 61 56 48 48 48 46 46 47 45 52 52 52 48 50 47
12 11 10 8 7 7 6 5 5 6 6 8 10 13 18 21 21 20 22 32 35 37 43 43 42 49 56 60 60 65 63 47 40 39 48 43 43 45 48 51 49 53 50 54 52
13 12 11 9 8 7 6 5 5 5 6 7 9 12 18 21 24 22 20 22 34 39 46 52 54 61 67 66 63 64 48 39 36 36 37 42 43 42 48 52 48 54 53 56 59
12 12 11 10 8 7 6 5 5 5 6 6 9 11 16 21 30 24 20 21 24 37 43 52 58 69 75 70 58 47 38 36 36 39 40 43 42 42 43 42 41 41 47 54 59
10 12 12 10 9 8 6 6 5 5 5 7 8 10 16 20 21 24 22 21 22 30 36 40 56 66 66 59 48 38 37 34 36 35 40 41 42 42 42 42 41 44 51 54 58
10 10 11 11 10 8 7 6 5 4 5 6 8 9 14 20 22 25 24 21 21 23 28 37 32 40 52 38 31 32 33 34 33 35 37 42 43 40 42 43 44 46 52 55 54
11 10 10 10 10 9 7 6 5 4 4 5 7 9 14 20 21 26 24 24 23 24 25 28 33 40 30 28 30 30 33 32 34 36 40 39 45 45 40 43 45 49 53 55 55
13 11 10 9 10 9 8 6 5 4 4 5 6 8 15 20 21 20 20 21 22 28 29 32 36 41 32 27 28 34 34 36 31 35 37 37 45 45 41 41 46 48 52 56 57
15 13 10 9 9 9 8 7 5 4 4 5 6 9 13 18 20 20 20 19 23 26 25 31 33 36 26 32 36 36 41 40 34 35 41 41 46 46 42 40 42 44 45 48 51
16 14 12 9 9 9 7 6 5 4 4 5 7 13 16 17 20 19 20 19 20 23 22 20 20 24 26 26 29 36 42 38 35 36 37 44 47 48 44 41 40 39 40 42 43
17 14 12 10 8 8 6 14 25 8 5 7 8 11 14 15 12 17 20 17 17 20 25 19 22 24 21 21 20 24 36 37 35 35 35 42 43 51 45 44 44 41 38 38 39
18 14 12 10 8 8 12 23 24 22 23 13 10 13 11 10 11 12 16 17 21 27 21 24 26 19 19 21 21 22 29 38 36 36 30 40 40 43 44 44 43 41 39 37 38
19 15 12 10 8 8 11 19 22 22 24 17 14 11 10 11 11 10 16 16 20 22 20 24 19 16 14 16 11 15 30 33 32 37 33 38 43 46 43 42 41 41 39 36 36
23 16 13 10 9 11 16 22 20 20 25 19 16 12 11 9 8 10 12 15 16 22 21 20 16 12 11 12 11 10 19 24 42 41 39 33 48 35 49 46 41 40 39 37 34
25 20 15 11 9 11 19 20 19 19 18 8 14 11 10 8 9 8 11 14 17 16 16 18 13 11 12 10 10 10 8 20 34 27 15 26 30 23 44 53 46 39 37 34 31
26 22 17 14 10 10 17 20 18 18 17 10 12 10 10 9 8 8 9 11 11 15 14 17 12 10 10 8 9 10 10 15 18 17 16 15 32 18 47 37 39 39 38 34 31
25 22 18 14 11 12 20 19 26 27 12 12 10 9 10 10 10 8 11 12 14 16 17 13 11 9 8 8 8 10 14 19 16 17 16 17 21 19 19 21 33 37 38 37 34
26 20 16 12 11 9 16 24 26 16 19 16 10 10 11 9 9 9 10 12 12 14 17 15 16 10 8 9 10 10 13 18 14 18 17 21 20 19 39 37 29 29 30 32 34
25 19 12 12 11 10 18 36 29 24 19 17 14 10 10 8 9 9 12 13 12 13 16 15 13 9 9 7 8 10 11 12 19 21 24 24 39 36 38 36 36 36 35 34 33
26 20 18 25 13 12 31 41 28 25 18 15 17 10 12 10 10 11 13 10 10 12 11 12 14 9 7 7 7 8 10 11 18 18 21 33 36 54 38 33 33 33 35 30 30
26 23 23 24 18 16 33 39 31 23 20 14 15 14 12 9 10 13 11 9 10 12 9 11 11 10 7 8 10 9 10 16 18 28 39 51 52 36 43 37 33 28 25 33 41
38 40 25 26 21 39 41 34 21 17 13 11 14 15 14 13 10 11 10 8 7 10 11 10 13 12 10 7 8 8 9 14 16 16 37 46 38 23 42 37 29 29 37 44 39
47 43 35 27 24 31 28 22 17 15 14 12 15 15 14 13 16 12 11 7 7 10 11 10 13 15 12 9 8 8 12 17 22 32 37 34 31 38 46 48 41 42 46 46 37
57 63 45 35 32 27 27 20 19 16 16 15 14 14 14 15 16 15 14 12 8 7 7 9 14 13 14 10 10 9 12 15 19 24 29 31 29 46 54 54 51 51 51 41 33
70 66 82 92 71 72 67 46 29 32 23 17 17 18 16 18 15 18 16 15 13 21 15 9 10 12 10 9 11 11 11 14 15 17 17 18 40 41 48 50 50 48 52 42 41
79 78 71 74 70 80 72 57 45 41 34 33 25 24 21 21 18 14 15 19 16 22 11 12 10 13 9 11 13 12 12 13 13 20 20 21 38 35 39 41 50 49 52 44 45
60 85 95 76 84 82 77 63 55 52 46 31 27 24 19 19 15 14 12 12 17 15 13 12 16 15 12 12 13 13 11 11 12 16 27 36 32 42 44 48 46 46 46 46 45
Wind_Speed
6 5 4 3 2 2 3 3 3 3 2 2 4 5 6 8 8 10 5 1 3 9 9 5 6 5 1 7 5 2 3 1 2 4 2 15 5 13 5 16 4 5 13 20 23
7 6 5 4 3 3 4 4 4 4 4 3 3 5 6 8 10 3 3 4 5 7 9 10 7 5 2 3 2 3 2 4 4 4 6 13 12 15 7 16 3 5 16 22 22
7 6 6 5 4 4 4 5 5 5 5 5 3 4 6 7 2 1 4 5 4 6 5 8 2 2 3 4 0 2 2 2 1 10 18 16 10 7 17 3 10 17 24 25 22
7 7 6 6 6 5 5 6 6 5 6 6 4 4 4 3 1 1 5 5 5 6 6 8 3 0 2 2 1 3 4 4 4 14 12 16 16 7 14 4 13 22 23 26 24
8 8 8 7 7 6 6 6 7 6 6 7 5 4 3 2 1 1 6 6 6 7 7 7 6 2 1 3 7 1 3 5 9 9 17 16 7 5 14 4 15 22 23 25 24
9 9 8 8 7 7 6 6 7 7 7 7 7 4 3 2 1 0 5 7 5 6 7 10 4 4 5 5 3 2 6 4 10 10 11 8 5 7 12 16 18 22 24 24 25
10 10 9 8 8 8 7 7 7 8 8 7 7 7 7 5 3 2 2 3 4 6 10 13 13 7 5 2 4 10 3 3 3 7 5 14 2 5 11 22 22 24 23 25 26
12 11 10 9 8 8 7 7 8 7 8 7 7 7 5 6 13 12 9 9 9 10 12 16 13 13 7 7 3 5 4 1 1 5 4 4 4 4 19 26 22 23 25 25 27
14 13 12 11 9 7 8 7 7 7 7 7 7 7 5 10 15 13 15 12 4 8 9 13 3 8 4 4 4 3 3 4 3 6 3 3 2 8 20 23 27 25 24 25 27
15 14 14 13 10 7 6 4 3 5 6 7 7 3 13 7 9 11 10 10 9 5 2 4 6 2 3 3 3 6 4 3 5 5 3 4 3 5 23 24 25 30 29 25 25
16 15 15 14 11 7 1 2 0 1 7 8 3 6 3 9 4 10 14 8 10 4 1 5 4 6 7 7 6 6 5 7 3 5 4 6 2 7 16 19 20 25 29 28 27
17 17 15 14 11 6 5 6 9 7 9 15 22 24 23 11 7 9 11 8 3 3 1 4 7 5 7 7 4 5 5 5 3 5 3 4 7 6 17 23 25 27 29 30 29
18 17 16 14 10 3 4 4 9 9 3 10 18 22 22 13 11 12 15 10 4 4 5 6 5 8 5 2 1 2 6 5 4 4 3 4 7 4 8 17 21 24 30 30 31
19 18 16 13 6 3 5 5 12 0 4 7 6 10 15 9 7 22 14 13 3 8 5 5 4 3 6 2 4 3 7 7 11 6 4 3 4 6 5 10 16 24 28 32 33
20 19 16 12 11 4 2 8 3 1 3 3 5 3 14 14 8 13 17 17 7 5 5 5 1 5 6 3 4 6 5 6 4 5 5 1 3 7 1 7 15 23 31 36 34
20 21 17 14 10 6 5 6 5 6 6 3 5 5 5 5 7 4 8 11 7 5 1 7 2 3 7 1 2 2 7 9 6 4 2 4 5 6 5 13 7 12 28 37 37
21 20 19 14 9 4 3 1 5 3 5 1 3 3 2 4 4 5 6 5 6 4 3 5 4 3 5 2 2 4 6 3 3 3 5 3 4 9 6 7 13 12 26 32 35
23 20 19 14 11 7 5 4 4 4 6 5 1 2 8 5 2 2 5 4 2 5 3 4 6 5 3 8 7 2 7 6 4 3 4 4 5 6 7 13 9 11 16 23 30
24 20 17 11 8 11 7 2 8 7 4 6 5 3 4 3 6 4 6 6 9 9 8 5 6 4 5 3 6 2 2 4 8 3 2 3 5 8 5 5 7 9 11 20 21
27 21 9 8 9 14 4 7 5 4 5 3 2 1 7 5 6 7 8 5 6 13 6 5 3 5 3 5 4 4 7 4 3 4 3 4 4 5 4 5 5 6 11 10 11
22 10 11 8 13 13 5 7 6 8 4 2 2 3 4 5 8 6 7 4 6 4 6 6 4 6 2 4 8 1 0 7 5 4 5 3 6 7 9 8 9 12 11 9 3
11 5 11 6 2 1 3 6 2 3 1 3 2 4 4 2 5 6 11 9 18 17 9 6 5 4 12 4 3 4 6 6 5 4 1 3 6 3 9 11 14 15 14 9 3
19 7 6 16 1 3 4 4 4 2 3 2 3 5 1 2 4 6 7 12 17 10 10 8 2 2 11 4 1 4 4 6 5 4 6 6 5 3 6 5 15 16 17 13 9
8 4 3 6 2 0 4 4 3 6 8 8 6 9 3 5 6 4 3 3 21 17 27 21 5 8 8 8 4 3 6 5 6 4 5 6 3 4 10 10 16 23 22 17 13
5 3 3 3 3 6 2 5 3 3 7 8 4 11 7 5 3 6 5 4 0 5 11 8 9 7 7 6 5 6 6 9 7 6 7 7 10 15 19 17 30 33 26 21 18
5 5 6 8 12 4 4 5 3 3 4 8 6 10 6 8 8 3 6 5 5 3 6 1 5 8 6 3 7 5 6 8 5 5 5 4 7 6 12 17 23 34 32 27 23
6 4 4 7 4 2 3 4 4 10 11 21 10 4 5 16 27 33 26 11 3 4 5 6 7 4 9 3 2 6 7 8 5 4 8 7 13 11 7 16 30 35 34 32 28
Wind_Direction
24 10 10 352 333 292 275 264 257 271 282 309 324 338 332 326 322 316 314 107 155 171 185 202 204 199 225 341 0 55 66 133 226 183 131 147 123 147 140 150 137 121 159 158 164
14 9 358 349 323 301 280 271 266 271 286 288 313 328 327 329 325 340 162 112 159 160 170 179 157 175 228 321 28 96 91 203 213 177 138 152 128 157 122 151 125 156 158 167 169
6 4 353 342 324 307 290 274 266 270 280 291 297 319 325 336 32 60 148 138 170 180 192 184 203 220 324 321 16 155 238 329 103 123 146 157 135 165 139 204 180 169 161 174 176
5 357 353 338 327 309 293 277 267 261 269 280 290 305 311 328 163 151 165 159 161 182 206 209 230 240 287 301 217 356 303 312 76 110 130 153 151 151 159 233 207 174 170 177 184
357 355 348 339 324 310 294 282 268 260 258 268 285 296 301 281 178 136 199 179 183 192 214 230 234 237 242 238 151 259 1 50 80 110 142 148 160 170 189 141 157 173 180 186 191
352 349 347 338 327 311 296 279 270 258 257 259 272 290 274 241 191 303 211 206 215 222 238 224 267 334 299 245 181 137 61 65 74 108 140 125 155 139 207 174 167 180 187 193 198
351 346 342 337 327 315 299 280 262 256 253 257 266 275 268 227 194 204 230 294 286 275 255 297 260 211 338 312 129 107 94 340 46 128 117 116 104 230 177 168 172 188 194 199 203
351 345 340 334 328 318 299 280 265 253 249 248 258 272 249 249 252 255 242 255 266 270 276 287 286 248 255 139 72 72 45 52 202 153 123 106 258 241 175 172 176 193 201 207 210
348 345 339 334 328 320 304 283 262 252 241 241 249 250 250 234 242 256 269 262 270 278 290 266 278 213 160 86 27 8 191 215 318 211 120 101 259 197 184 188 189 195 207 215 219
346 343 341 334 329 329 312 301 266 247 239 237 243 266 247 220 227 245 255 262 252 275 288 176 192 96 53 107 206 232 218 212 199 217 167 154 270 184 189 195 203 209 214 218 226
343 340 339 334 332 334 331 142 290 253 230 214 202 226 273 202 239 236 247 250 249 283 34 357 38 234 222 229 211 208 216 203 180 170 131 203 195 194 203 203 212 218 219 226 232
340 339 338 332 333 334 66 97 64 343 300 242 249 252 244 249 302 244 218 213 157 196 124 12 236 218 200 214 219 167 184 222 64 137 98 163 256 194 197 219 212 217 223 225 228
338 336 336 332 330 353 100 110 347 331 244 276 234 242 241 236 229 247 199 194 159 183 198 187 243 325 15 349 323 137 181 162 155 122 65 110 317 221 216 215 223 229 233 234 232
337 333 333 337 324 350 135 358 331 354 51 270 226 235 209 191 238 233 220 206 168 214 191 245 293 21 356 334 132 313 161 124 137 120 189 137 254 282 212 209 217 223 229 236 238
334 329 329 327 312 331 223 338 344 107 338 224 201 189 190 176 150 205 207 201 180 187 108 256 315 17 347 259 132 225 85 131 137 96 101 10 59 269 161 229 231 215 221 235 241
333 324 322 316 306 281 262 325 145 42 254 334 169 172 132 199 180 150 173 189 201 152 333 238 248 209 214 225 119 133 75 41 53 79 10 230 140 282 197 220 243 207 215 229 235
330 322 313 303 293 261 251 166 46 160 322 326 221 152 136 175 195 169 146 138 161 122 298 325 248 250 186 171 349 97 61 6 18 14 220 229 117 241 265 267 238 202 212 225 232
330 321 306 295 278 243 242 59 192 238 251 308 358 80 180 155 226 104 121 164 54 98 113 162 311 181 180 183 189 168 148 148 194 197 259 149 228 247 263 305 234 226 235 235 239
333 325 305 305 256 211 174 143 205 210 260 327 320 167 218 192 175 144 193 207 196 170 174 154 265 281 221 166 131 187 169 162 103 7 55 274 288 319 347 46 114 169 194 218 232
340 331 329 336 210 192 111 221 222 224 334 4 265 200 202 194 152 160 179 206 210 186 174 198 297 231 306 115 49 169 151 85 12 141 216 298 280 239 269 196 141 170 190 204 233
344 332 346 328 173 180 201 217 221 247 271 316 305 307 225 200 183 175 204 267 212 138 133 133 120 287 350 185 177 103 102 50 114 115 156 169 258 219 209 198 184 191 173 179 220
355 340 328 177 166 82 182 192 221 250 142 311 252 243 238 224 197 218 197 216 197 154 164 195 156 235 237 239 182 170 175 139 123 219 199 160 270 281 205 195 181 175 177 171 132
332 295 333 186 181 283 261 254 223 218 207 260 277 220 235 276 333 201 207 233 167 149 159 182 241 286 327 8 145 184 167 110 108 95 192 143 256 331 172 194 195 194 193 175 150
330 344 6 218 281 49 340 236 254 248 240 224 235 231 253 281 205 278 251 275 195 189 213 156 143 167 201 208 160 170 179 148 126 119 172 223 195 235 197 194 209 208 198 176 166
348 324 348 310 311 328 272 286 211 258 233 209 265 221 186 266 264 220 231 296 180 199 162 141 188 180 242 217 187 191 182 164 172 178 156 224 193 205 196 193 198 196 191 182 182
352 352 333 285 288 279 174 240 225 305 225 245 229 245 198 217 215 290 191 193 202 227 149 348 206 161 255 198 200 225 206 196 210 146 275 163 241 236 195 184 189 196 189 189 190
337 302 299 283 303 276 227 345 319 330 275 240 230 222 203 237 253 257 240 266 233 184 156 139 132 116 232 191 140 315 206 200 200 188 150 163 217 152 166 193 195 193 190 194 192